Tracking 30692 objects as of 16-Jun-2025
HD Live streaming from Space Station
objects crossing your sky now

COSMOS 2494 (SKRL 756)

Track COSMOS 2494 (SKRL 756) now!
10-day predictions
COSMOS 2494 (SKRL 756) is classified as:


NORAD ID: 39491
Int'l Code: 2013-078B
Perigee: 556.9 km
Apogee: 580.9 km
Inclination: 82.4 °
Period: 95.9 minutes
Semi major axis: 6939 km
RCS: Unknown
Launch date: December 28, 2013
Source: Commonwealth of Independent States (former USSR) (CIS)
Launch site: PLESETSK MISSILE AND SPACE COMPLEX (PKMTR)
Your satellite tracking list
Your tracking list is empty




NASA's NSSDC Master Catalog

Two Line Element Set (TLE):
1 39491U 13078B   25167.18748746  .00002696  00000-0  20493-3 0  9995
2 39491  82.4135 249.2603 0017318  10.7611 349.3980 15.01673177623907
Source of the keplerian elements: AFSPC